,,,PA_Meas_PMT16A,,PR_Meas_QMR101_102,,RH_Meas_QMH101,,SR_Meas_QMS101,,TA_Meas_QMH101,,GenWind,,GenWind,
date,time,status,PA,status,PR,status,RH,status,SR,status,TA,status,DirAvg,status,SpdAvg,
2011-03-17, 00:00:05,VALID,999.929,VALID,0,VALID,89.0606,VALID,0,VALID,24.2458,VALID,142,VALID,0.730469,
2011-03-17, 00:01:05,VALID,999.899,VALID,0,VALID,88.9309,VALID,0,VALID,24.2653,VALID,142,VALID,0.7375,
2011-03-17, 00:02:05,VALID,999.929,VALID,0,VALID,88.9309,VALID,0,VALID,24.2263,VALID,142,VALID,0.630859,
2011-03-17, 00:03:05,VALID,999.897,VALID,0,VALID,88.969,VALID,0,VALID,24.2086,VALID,142,VALID,0.714453,
2011-03-17, 00:04:05,VALID,999.89,VALID,0,VALID,89.0377,VALID,0,VALID,24.2067,VALID,142,VALID,0.551562,
2011-03-17, 00:05:05,VALID,999.874,VALID,0,VALID,89.175,VALID,0,VALID,24.1464,VALID,142,VALID,0.703516,
2011-03-17, 00:06:05,VALID,999.827,VALID,0,VALID,88.9919,VALID,0,VALID,24.1482,VALID,142,VALID,0.507813,
2011-03-17, 00:07:05,VALID,999.861,VALID,0,VALID,89.0758,VALID,0,VALID,24.1092,VALID,142,VALID,0.560156,
2011-03-17, 00:08:05,VALID,999.855,VALID,0,VALID,89.1445,VALID,0,VALID,24.111,VALID,142,VALID,0.463672,
2011-03-17, 00:09:05,VALID,999.837,VALID,0,VALID,89.0834,VALID,0,VALID,24.0915,VALID,142,VALID,0.489844,
2011-03-17, 00:10:05,VALID,999.819,VALID,0,VALID,88.9995,VALID,0,VALID,24.072,VALID,142,VALID,0.3375,
2011-03-17, 00:11:05,VALID,999.832,VALID,0,VALID,89.1521,VALID,0,VALID,24.0311,VALID,105,VALID,0.382422,
2011-03-17, 00:12:05,VALID,999.789,VALID,0,VALID,89.0834,VALID,0,VALID,24.0329,VALID,105,VALID,0.143359,
2011-03-17, 00:13:05,VALID,999.765,VALID,0,VALID,89.2132,VALID,0,VALID,23.9921,VALID,105,VALID,0.154687,
2011-03-17, 00:14:05,VALID,999.752,VALID,0,VALID,89.3428,VALID,0,VALID,23.9744,VALID,105,VALID,0,
2011-03-17, 00:15:05,VALID,999.738,VALID,0,VALID,89.5489,VALID,0,VALID,23.9549,VALID,105,VALID,0,
2011-03-17, 00:16:05,VALID,999.746,VALID,0,VALID,89.732,VALID,0,VALID,23.9159,VALID,105,VALID,0.392969,
2011-03-17, 00:17:05,VALID,999.718,VALID,0,VALID,89.8693,VALID,0,VALID,23.8963,VALID,105,VALID,0.353125,
2011-03-17, 00:18:05,VALID,999.702,VALID,0,VALID,89.9837,VALID,0,VALID,23.8378,VALID,105,VALID,0.235938,
2011-03-17, 00:19:05,VALID,999.717,VALID,0,VALID,90.0219,VALID,0,VALID,23.7988,VALID,105,VALID,0.0460938,
2011-03-17, 00:20:05,VALID,999.735,VALID,0,VALID,90.1058,VALID,0,VALID,23.7793,VALID,105,VALID,0.157031,
2011-03-17, 00:21:05,VALID,999.757,VALID,0,VALID,90.2584,VALID,0,VALID,23.7597,VALID,105,VALID,0.265625,
2011-03-17, 00:22:05,VALID,999.774,VALID,0,VALID,90.3576,VALID,0,VALID,23.7597,VALID,105,VALID,0.483594,
2011-03-17, 00:23:05,VALID,999.743,VALID,0,VALID,90.472,VALID,0,VALID,23.7616,VALID,105,VALID,0.632422,
2011-03-17, 00:24:05,VALID,999.727,VALID,0,VALID,90.4797,VALID,0,VALID,23.7402,VALID,111,VALID,0.908984,
2011-03-17, 00:25:05,VALID,999.735,VALID,0,VALID,90.3042,VALID,0,VALID,23.7402,VALID,111,VALID,0.971875,
2011-03-17, 00:26:05,VALID,999.713,VALID,0,VALID,90.1287,VALID,0,VALID,23.7402,VALID,111,VALID,0.928516,
2011-03-17, 00:27:05,VALID,999.675,VALID,0,VALID,90.0295,VALID,0,VALID,23.7402,VALID,111,VALID,0.723828,
2011-03-17, 00:28:05,VALID,999.669,VALID,0,VALID,89.9685,VALID,0,VALID,23.7597,VALID,111,VALID,0.624219,
2011-03-17, 00:29:05,VALID,999.617,VALID,0,VALID,89.8922,VALID,0,VALID,23.7402,VALID,111,VALID,0.525,
2011-03-17, 00:30:05,VALID,999.593,VALID,0,VALID,89.6938,VALID,0,VALID,23.7207,VALID,134,VALID,0.654688,
2011-03-17, 00:31:05,VALID,999.54,VALID,0,VALID,89.6251,VALID,0,VALID,23.7207,VALID,165,VALID,0.662109,
2011-03-17, 00:32:05,VALID,999.515,VALID,0,VALID,89.7472,VALID,0,VALID,23.7207,VALID,165,VALID,0.442969,
2011-03-17, 00:33:05,VALID,999.5,VALID,0,VALID,89.793,VALID,0,VALID,23.7402,VALID,165,VALID,0.432422,
2011-03-17, 00:34:05,VALID,999.504,VALID,0,VALID,89.7777,VALID,0,VALID,23.7207,VALID,165,VALID,0.183594,
2011-03-17, 00:35:05,VALID,999.499,VALID,0,VALID,89.7777,VALID,0,VALID,23.7012,VALID,165,VALID,0.173828,
2011-03-17, 00:36:05,VALID,999.503,VALID,0,VALID,89.8006,VALID,0,VALID,23.6622,VALID,165,VALID,0.225,
2011-03-17, 00:37:05,VALID,999.474,VALID,0,VALID,89.7854,VALID,0,VALID,23.6622,VALID,154,VALID,0.523047,
2011-03-17, 00:38:05,VALID,999.503,VALID,0,VALID,89.7014,VALID,0,VALID,23.6427,VALID,141,VALID,0.614844,
2011-03-17, 00:39:05,VALID,999.508,VALID,0,VALID,89.6633,VALID,0,VALID,23.6232,VALID,133,VALID,0.574609,
2011-03-17, 00:40:05,VALID,999.493,VALID,0,VALID,89.7167,VALID,0,VALID,23.6427,VALID,133,VALID,0.492969,
2011-03-17, 00:41:05,VALID,999.532,VALID,0,VALID,89.7091,VALID,0,VALID,23.6427,VALID,133,VALID,0.544922,
2011-03-17, 00:42:05,VALID,999.522,VALID,0,VALID,89.8083,VALID,0,VALID,23.6427,VALID,133,VALID,0.403906,
2011-03-17, 00:43:05,VALID,999.497,VALID,0,VALID,89.7625,VALID,0,VALID,23.6232,VALID,133,VALID,0.31875,
2011-03-17, 00:44:05,VALID,999.461,VALID,0,VALID,89.7701,VALID,0,VALID,23.6232,VALID,133,VALID,0.224219,
2011-03-17, 00:45:05,VALID,999.484,VALID,0,VALID,89.7854,VALID,0,VALID,23.6036,VALID,133,VALID,0.201953,
2011-03-17, 00:46:05,VALID,999.442,VALID,0,VALID,89.7167,VALID,0,VALID,23.5646,VALID,133,VALID,0.0375,
2011-03-17, 00:47:05,VALID,999.434,VALID,0,VALID,89.6099,VALID,0,VALID,23.5256,VALID,133,VALID,0,
2011-03-17, 00:48:05,VALID,999.41,VALID,0,VALID,89.6175,VALID,0,VALID,23.4671,VALID,133,VALID,0,
2011-03-17, 00:49:05,VALID,999.409,VALID,0,VALID,89.7167,VALID,0,VALID,23.428,VALID,133,VALID,0.0972656,
2011-03-17, 00:50:05,VALID,999.368,VALID,0,VALID,89.8235,VALID,0,VALID,23.389,VALID,133,VALID,0,
2011-03-17, 00:51:05,VALID,999.348,VALID,0,VALID,90.0295,VALID,0,VALID,23.3695,VALID,133,VALID,0.302734,
2011-03-17, 00:52:05,VALID,999.352,VALID,0,VALID,90.2813,VALID,0,VALID,23.389,VALID,133,VALID,0.00195313,
2011-03-17, 00:53:05,VALID,999.353,VALID,0,VALID,90.3728,VALID,0,VALID,23.35,VALID,133,VALID,0.111719,
2011-03-17, 00:54:05,VALID,999.351,VALID,0,VALID,90.472,VALID,0,VALID,23.35,VALID,133,VALID,0.0140625,
2011-03-17, 00:55:05,VALID,999.348,VALID,0,VALID,90.5941,VALID,0,VALID,23.3695,VALID,133,VALID,0.339844,
2011-03-17, 00:56:05,VALID,999.337,VALID,0,VALID,90.7314,VALID,0,VALID,23.3695,VALID,133,VALID,0.603516,
2011-03-17, 00:57:05,VALID,999.316,VALID,0,VALID,90.8077,VALID,0,VALID,23.389,VALID,7,VALID,0.59375,
2011-03-17, 00:58:05,VALID,999.279,VALID,0,VALID,90.8611,VALID,0,VALID,23.389,VALID,7,VALID,0.646094,
2011-03-17, 00:59:05,VALID,999.258,VALID,0,VALID,90.884,VALID,0,VALID,23.389,VALID,7,VALID,0.554297,
2011-03-17, 01:00:05,VALID,999.243,VALID,0,VALID,90.8688,VALID,0,VALID,23.389,VALID,7,VALID,0.512109,
2011-03-17, 01:01:05,VALID,999.196,VALID,0,VALID,90.8535,VALID,0,VALID,23.4103,VALID,7,VALID,0.469531,
2011-03-17, 01:02:05,VALID,999.175,VALID,0,VALID,90.8383,VALID,0,VALID,23.389,VALID,7,VALID,0.334766,
2011-03-17, 01:03:05,VALID,999.163,VALID,0,VALID,90.8077,VALID,0,VALID,23.35,VALID,7,VALID,0.182031,
2011-03-17, 01:04:05,VALID,999.158,VALID,0,VALID,90.8154,VALID,0,VALID,23.3518,VALID,7,VALID,0,
2011-03-17, 01:05:05,VALID,999.167,VALID,0,VALID,90.8917,VALID,0,VALID,23.35,VALID,7,VALID,0.119922,
2011-03-17, 01:06:05,VALID,999.168,VALID,0,VALID,90.9756,VALID,0,VALID,23.3305,VALID,7,VALID,0.157031,
2011-03-17, 01:07:05,VALID,999.141,VALID,0,VALID,91.0748,VALID,0,VALID,23.3713,VALID,7,VALID,0.124219,
2011-03-17, 01:08:05,VALID,999.125,VALID,0,VALID,91.1587,VALID,0,VALID,23.35,VALID,7,VALID,0.180859,
2011-03-17, 01:09:05,VALID,999.126,VALID,0,VALID,91.1892,VALID,0,VALID,23.3305,VALID,7,VALID,0.229687,
2011-03-17, 01:10:05,VALID,999.117,VALID,0,VALID,91.2274,VALID,0,VALID,23.311,VALID,7,VALID,0.271875,
2011-03-17, 01:11:05,VALID,999.1,VALID,0,VALID,91.2884,VALID,0,VALID,23.311,VALID,7,VALID,0.276172,
2011-03-17, 01:12:05,VALID,999.091,VALID,0,VALID,91.3418,VALID,0,VALID,23.311,VALID,7,VALID,0.257813,
2011-03-17, 01:13:05,VALID,999.109,VALID,0,VALID,91.3723,VALID,0,VALID,23.2915,VALID,7,VALID,0.260938,
2011-03-17, 01:14:05,VALID,999.074,VALID,0,VALID,91.4639,VALID,0,VALID,23.311,VALID,7,VALID,0.248047,
2011-03-17, 01:15:05,VALID,999.091,VALID,0,VALID,91.4715,VALID,0,VALID,23.2915,VALID,7,VALID,0.300781,
2011-03-17, 01:16:05,VALID,999.062,VALID,0,VALID,91.5249,VALID,0,VALID,23.2915,VALID,7,VALID,0.267969,
2011-03-17, 01:17:05,VALID,999.051,VALID,0,VALID,91.5402,VALID,0,VALID,23.311,VALID,7,VALID,0.24375,
2011-03-17, 01:18:05,VALID,999.053,VALID,0,VALID,91.5249,VALID,0,VALID,23.3127,VALID,7,VALID,0.24375,
2011-03-17, 01:19:05,VALID,999.058,VALID,0,VALID,91.4868,VALID,0,VALID,23.3127,VALID,7,VALID,0.476563,
2011-03-17, 01:20:05,VALID,999.053,VALID,0,VALID,91.4639,VALID,0,VALID,23.2915,VALID,7,VALID,0.460156,
2011-03-17, 01:21:05,VALID,999.019,VALID,0,VALID,91.4791,VALID,0,VALID,23.2915,VALID,7,VALID,0.417188,
2011-03-17, 01:22:05,VALID,999.009,VALID,0,VALID,91.4563,VALID,0,VALID,23.3323,VALID,7,VALID,0.389453,
2011-03-17, 01:23:05,VALID,998.988,VALID,0,VALID,91.3952,VALID,0,VALID,23.2915,VALID,7,VALID,0.514844,
2011-03-17, 01:24:05,VALID,998.988,VALID,0,VALID,91.3647,VALID,0,VALID,23.2915,VALID,7,VALID,0.497266,
2011-03-17, 01:25:05,VALID,998.977,VALID,0,VALID,91.2197,VALID,0,VALID,23.2524,VALID,7,VALID,0.460938,
2011-03-17, 01:26:05,VALID,998.936,VALID,0,VALID,91.1816,VALID,0,VALID,23.2329,VALID,7,VALID,0.587891,
2011-03-17, 01:27:05,VALID,998.911,VALID,0,VALID,91.235,VALID,0,VALID,23.2524,VALID,7,VALID,0.582812,
2011-03-17, 01:28:05,VALID,998.914,VALID,0,VALID,91.2731,VALID,0,VALID,23.2347,VALID,7,VALID,0.489062,
2011-03-17, 01:29:05,VALID,998.933,VALID,0,VALID,91.3647,VALID,0,VALID,23.2347,VALID,7,VALID,0.502344,
2011-03-17, 01:30:05,VALID,998.901,VALID,0,VALID,91.502,VALID,0,VALID,23.2347,VALID,7,VALID,0.495703,
2011-03-17, 01:31:05,VALID,998.929,VALID,0,VALID,91.5936,VALID,0,VALID,23.2134,VALID,7,VALID,0.532031,
2011-03-17, 01:32:05,VALID,998.89,VALID,0,VALID,91.6775,VALID,0,VALID,23.2329,VALID,7,VALID,0.567187,
2011-03-17, 01:33:05,VALID,998.906,VALID,0,VALID,91.7157,VALID,0,VALID,23.2329,VALID,44,VALID,0.612109,
2011-03-17, 01:34:05,VALID,998.898,VALID,0,VALID,91.7309,VALID,0,VALID,23.2329,VALID,45,VALID,0.636328,
2011-03-17, 01:35:05,VALID,998.914,VALID,0,VALID,91.6851,VALID,0,VALID,23.2329,VALID,82,VALID,0.651953,
2011-03-17, 01:36:05,VALID,998.887,VALID,0,VALID,91.5631,VALID,0,VALID,23.2347,VALID,82,VALID,0.642578,
2011-03-17, 01:37:05,VALID,998.9,VALID,0,VALID,91.4639,VALID,0,VALID,23.2134,VALID,82,VALID,0.577344,
2011-03-17, 01:38:05,VALID,998.905,VALID,0,VALID,91.3723,VALID,0,VALID,23.1744,VALID,94,VALID,0.624219,
2011-03-17, 01:39:05,VALID,998.896,VALID,0,VALID,91.2655,VALID,0,VALID,23.1957,VALID,95,VALID,0.625391,
2011-03-17, 01:40:05,VALID,998.91,VALID,0,VALID,91.1968,VALID,0,VALID,23.1762,VALID,95,VALID,0.554688,
2011-03-17, 01:41:05,VALID,998.908,VALID,0,VALID,91.1129,VALID,0,VALID,23.1762,VALID,111,VALID,0.605859,
2011-03-17, 01:42:05,VALID,998.912,VALID,0,VALID,91.0977,VALID,0,VALID,23.1762,VALID,112,VALID,0.564062,
2011-03-17, 01:43:05,VALID,998.902,VALID,0,VALID,91.1206,VALID,0,VALID,23.1566,VALID,112,VALID,0.524219,
2011-03-17, 01:44:05,VALID,998.9,VALID,0,VALID,91.1511,VALID,0,VALID,23.1549,VALID,112,VALID,0.476953,
2011-03-17, 01:45:05,VALID,998.914,VALID,0,VALID,91.174,VALID,0,VALID,23.1354,VALID,115,VALID,0.297266,
2011-03-17, 01:46:05,VALID,998.86,VALID,0,VALID,91.1892,VALID,0,VALID,23.1354,VALID,115,VALID,0.275,
2011-03-17, 01:47:05,VALID,998.887,VALID,0,VALID,91.1816,VALID,0,VALID,23.1371,VALID,115,VALID,0.372266,
2011-03-17, 01:48:05,VALID,998.866,VALID,0,VALID,91.2197,VALID,0,VALID,23.1159,VALID,114,VALID,0.379297,
2011-03-17, 01:49:05,VALID,998.881,VALID,0,VALID,91.235,VALID,0,VALID,23.0981,VALID,114,VALID,0.371094,
2011-03-17, 01:50:05,VALID,998.87,VALID,0,VALID,91.2731,VALID,0,VALID,23.0981,VALID,114,VALID,0.438281,
2011-03-17, 01:51:05,VALID,998.858,VALID,0,VALID,91.2655,VALID,0,VALID,23.0786,VALID,107,VALID,0.471875,
2011-03-17, 01:52:05,VALID,998.858,VALID,0,VALID,91.3113,VALID,0,VALID,23.0769,VALID,46,VALID,0.626953,
2011-03-17, 01:53:05,VALID,998.856,VALID,0,VALID,91.3189,VALID,0,VALID,23.0378,VALID,29,VALID,0.834375,
2011-03-17, 01:54:05,VALID,998.825,VALID,0,VALID,91.3952,VALID,0,VALID,23.0573,VALID,19,VALID,0.592578,
2011-03-17, 01:55:05,VALID,998.807,VALID,0,VALID,91.4715,VALID,0,VALID,23.0573,VALID,19,VALID,0.515625,
2011-03-17, 01:56:05,VALID,998.806,VALID,0,VALID,91.5249,VALID,0,VALID,23.0573,VALID,19,VALID,0.458594,
2011-03-17, 01:57:05,VALID,998.791,VALID,0,VALID,91.4944,VALID,0,VALID,23.0183,VALID,19,VALID,0.419922,
2011-03-17, 01:58:05,VALID,998.793,VALID,0,VALID,91.4563,VALID,0,VALID,22.9988,VALID,19,VALID,0.471484,
2011-03-17, 01:59:05,VALID,998.818,VALID,0,VALID,91.4334,VALID,0,VALID,22.9793,VALID,19,VALID,0.157031,
2011-03-17, 02:00:05,VALID,998.802,VALID,0,VALID,91.4944,VALID,0,VALID,22.9793,VALID,19,VALID,0,
2011-03-17, 02:01:05,VALID,998.829,VALID,0,VALID,91.4868,VALID,0,VALID,22.9403,VALID,19,VALID,0,
2011-03-17, 02:02:05,VALID,998.813,VALID,0,VALID,91.502,VALID,0,VALID,22.9208,VALID,19,VALID,0,
2011-03-17, 02:03:05,VALID,998.829,VALID,0,VALID,91.502,VALID,0,VALID,22.9013,VALID,19,VALID,0,
2011-03-17, 02:04:05,VALID,998.824,VALID,0,VALID,91.5631,VALID,0,VALID,22.8818,VALID,19,VALID,0,
2011-03-17, 02:05:05,VALID,998.84,VALID,0,VALID,91.6317,VALID,0,VALID,22.9013,VALID,19,VALID,0,
2011-03-17, 02:06:05,VALID,998.823,VALID,0,VALID,91.7385,VALID,0,VALID,22.9013,VALID,19,VALID,0,
2011-03-17, 02:07:05,VALID,998.788,VALID,0,VALID,91.7996,VALID,0,VALID,22.942,VALID,19,VALID,0,
2011-03-17, 02:08:05,VALID,998.762,VALID,0,VALID,91.8988,VALID,0,VALID,22.9208,VALID,19,VALID,0,
2011-03-17, 02:09:05,VALID,998.762,VALID,0,VALID,91.998,VALID,0,VALID,22.9615,VALID,19,VALID,0.188281,
2011-03-17, 02:10:05,VALID,998.74,VALID,0,VALID,92.0895,VALID,0,VALID,22.9598,VALID,19,VALID,0.282422,
2011-03-17, 02:11:05,VALID,998.715,VALID,0,VALID,92.1429,VALID,0,VALID,22.9598,VALID,19,VALID,0,
2011-03-17, 02:12:05,VALID,998.723,VALID,0,VALID,92.204,VALID,0,VALID,22.9793,VALID,19,VALID,0.0105469,
2011-03-17, 02:13:05,VALID,998.716,VALID,0,VALID,92.2192,VALID,0,VALID,23.0201,VALID,19,VALID,0.141406,
2011-03-17, 02:14:05,VALID,998.743,VALID,0,VALID,92.2726,VALID,0,VALID,23.0183,VALID,19,VALID,0.193359,
2011-03-17, 02:15:05,VALID,998.719,VALID,0,VALID,92.3031,VALID,0,VALID,23.0183,VALID,19,VALID,0.449219,
2011-03-17, 02:16:05,VALID,998.713,VALID,0,VALID,92.2803,VALID,0,VALID,22.9793,VALID,19,VALID,0.497656,
2011-03-17, 02:17:05,VALID,998.69,VALID,0,VALID,92.2879,VALID,0,VALID,22.9793,VALID,19,VALID,0.5125,
2011-03-17, 02:18:05,VALID,998.693,VALID,0,VALID,92.2879,VALID,0,VALID,22.9793,VALID,19,VALID,0.462891,
2011-03-17, 02:19:05,VALID,998.659,VALID,0,VALID,92.2803,VALID,0,VALID,22.9793,VALID,19,VALID,0.537109,
2011-03-17, 02:20:05,VALID,998.688,VALID,0,VALID,92.3108,VALID,0,VALID,22.9793,VALID,19,VALID,0.553516,
2011-03-17, 02:21:05,VALID,998.663,VALID,0,VALID,92.3184,VALID,0,VALID,22.9793,VALID,19,VALID,0.494531,
2011-03-17, 02:22:05,VALID,998.623,VALID,0,VALID,92.2955,VALID,0,VALID,22.9793,VALID,19,VALID,0.512891,
2011-03-17, 02:23:05,VALID,998.593,VALID,0,VALID,92.265,VALID,0,VALID,22.9793,VALID,19,VALID,0.654688,
2011-03-17, 02:24:05,VALID,998.629,VALID,0,VALID,92.2345,VALID,0,VALID,22.9988,VALID,19,VALID,0.537109,
2011-03-17, 02:25:05,VALID,998.595,VALID,0,VALID,92.1734,VALID,0,VALID,23.0183,VALID,19,VALID,0.515234,
2011-03-17, 02:26:05,VALID,998.62,VALID,0,VALID,92.0743,VALID,0,VALID,23.0183,VALID,19,VALID,0.44375,
2011-03-17, 02:27:05,VALID,998.614,VALID,0,VALID,91.9751,VALID,0,VALID,23.0183,VALID,19,VALID,0.441406,
2011-03-17, 02:28:05,VALID,998.611,VALID,0,VALID,91.8683,VALID,0,VALID,23.0183,VALID,19,VALID,0.501953,
2011-03-17, 02:29:05,VALID,998.593,VALID,0,VALID,91.7309,VALID,0,VALID,23.0183,VALID,63,VALID,0.667578,
2011-03-17, 02:30:05,VALID,998.602,VALID,0,VALID,91.6546,VALID,0,VALID,23.0396,VALID,85,VALID,0.731641,
2011-03-17, 02:31:05,VALID,998.611,VALID,0,VALID,91.586,VALID,0,VALID,23.0183,VALID,100,VALID,0.798828,
2011-03-17, 02:32:05,VALID,998.623,VALID,0,VALID,91.5402,VALID,0,VALID,22.9793,VALID,100,VALID,0.587891,
2011-03-17, 02:33:04,VALID,998.593,VALID,0,VALID,91.5249,VALID,0,VALID,22.9776,VALID,100,VALID,0.377734,
2011-03-17, 02:34:04,VALID,998.604,VALID,0,VALID,91.5478,VALID,0,VALID,22.9793,VALID,100,VALID,0.460156,
2011-03-17, 02:35:04,VALID,998.599,VALID,0,VALID,91.5707,VALID,0,VALID,22.9598,VALID,100,VALID,0.446484,
2011-03-17, 02:36:04,VALID,998.592,VALID,0,VALID,91.6088,VALID,0,VALID,22.9598,VALID,100,VALID,0.365234,
2011-03-17, 02:37:04,VALID,998.579,VALID,0,VALID,91.6546,VALID,0,VALID,22.9793,VALID,130,VALID,0.704297,
2011-03-17, 02:38:04,VALID,998.581,VALID,0,VALID,91.7157,VALID,0,VALID,22.9988,VALID,135,VALID,0.464063,
2011-03-17, 02:39:04,VALID,998.59,VALID,0,VALID,91.7309,VALID,0,VALID,23.0183,VALID,135,VALID,0.405078,
2011-03-17, 02:40:04,VALID,998.577,VALID,0,VALID,91.7309,VALID,0,VALID,23.0378,VALID,135,VALID,0.334766,
2011-03-17, 02:41:04,VALID,998.567,VALID,0,VALID,91.7233,VALID,0,VALID,23.0573,VALID,135,VALID,0.142578,
2011-03-17, 02:42:04,VALID,998.561,VALID,0,VALID,91.6928,VALID,0,VALID,23.0769,VALID,135,VALID,0.126172,
2011-03-17, 02:43:04,VALID,998.557,VALID,0,VALID,91.6546,VALID,0,VALID,23.0573,VALID,135,VALID,0,
2011-03-17, 02:44:04,VALID,998.569,VALID,0,VALID,91.6012,VALID,0,VALID,23.0769,VALID,135,VALID,0.00078125,
2011-03-17, 02:45:04,VALID,998.546,VALID,0,VALID,91.5631,VALID,0.112286,VALID,23.0769,VALID,135,VALID,0.0382813,
2011-03-17, 02:46:04,VALID,998.547,VALID,0,VALID,91.5478,VALID,0,VALID,23.0556,VALID,135,VALID,0,
2011-03-17, 02:47:04,VALID,998.558,VALID,0,VALID,91.5097,VALID,0,VALID,23.0769,VALID,135,VALID,0.00078125,
2011-03-17, 02:48:04,VALID,998.516,VALID,0,VALID,91.4868,VALID,0,VALID,23.0573,VALID,135,VALID,0.293359,
2011-03-17, 02:49:04,VALID,998.504,VALID,0,VALID,91.4181,VALID,0,VALID,23.0573,VALID,135,VALID,0.344531,
2011-03-17, 02:50:04,VALID,998.487,VALID,0,VALID,91.3189,VALID,0,VALID,23.0378,VALID,135,VALID,0.371484,
2011-03-17, 02:51:04,VALID,998.456,VALID,0,VALID,91.2274,VALID,0,VALID,23.0378,VALID,135,VALID,0.279297,
2011-03-17, 02:52:04,VALID,998.425,VALID,0,VALID,91.2045,VALID,0,VALID,23.0573,VALID,118,VALID,0.64375,
2011-03-17, 02:53:04,VALID,998.417,VALID,0,VALID,91.1206,VALID,0,VALID,23.0573,VALID,112,VALID,0.941406,
2011-03-17, 02:54:04,VALID,998.422,VALID,0,VALID,91.0671,VALID,0,VALID,23.0769,VALID,111,VALID,0.844141,
2011-03-17, 02:55:04,VALID,998.411,VALID,0,VALID,90.9909,VALID,0,VALID,23.0769,VALID,111,VALID,0.829297,
2011-03-17, 02:56:04,VALID,998.404,VALID,0,VALID,90.968,VALID,0,VALID,23.0573,VALID,111,VALID,0.843359,
2011-03-17, 02:57:04,VALID,998.432,VALID,0,VALID,90.9298,VALID,0,VALID,23.0573,VALID,113,VALID,0.820313,
2011-03-17, 02:58:04,VALID,998.405,VALID,0,VALID,90.8764,VALID,0,VALID,23.0378,VALID,125,VALID,1.09063,
2011-03-17, 02:59:04,VALID,998.376,VALID,0,VALID,90.7772,VALID,0,VALID,23.0183,VALID,125,VALID,0.883594,
2011-03-17, 03:00:04,VALID,998.411,VALID,0,VALID,90.7314,VALID,0,VALID,23.0591,VALID,125,VALID,0.658203,
2011-03-17, 03:01:04,VALID,998.363,VALID,0,VALID,90.6551,VALID,0,VALID,23.0183,VALID,113,VALID,0.871484,
2011-03-17, 03:02:04,VALID,998.352,VALID,0,VALID,90.6094,VALID,0,VALID,23.0378,VALID,110,VALID,0.68125,
2011-03-17, 03:03:04,VALID,998.356,VALID,0,VALID,90.5254,VALID,0,VALID,23.0786,VALID,110,VALID,0.529297,
2011-03-17, 03:04:04,VALID,998.368,VALID,0,VALID,90.4644,VALID,0,VALID,23.0786,VALID,106,VALID,0.521484,
2011-03-17, 03:05:04,VALID,998.356,VALID,0,VALID,90.4034,VALID,0,VALID,23.0786,VALID,106,VALID,0.519141,
2011-03-17, 03:06:04,VALID,998.35,VALID,0,VALID,90.3042,VALID,0,VALID,23.0981,VALID,106,VALID,0.546875,
2011-03-17, 03:07:04,VALID,998.364,VALID,0,VALID,90.1897,VALID,0,VALID,23.0981,VALID,106,VALID,0.582031,
2011-03-17, 03:08:04,VALID,998.345,VALID,0,VALID,90.1058,VALID,0,VALID,23.0981,VALID,106,VALID,0.274609,
2011-03-17, 03:09:04,VALID,998.354,VALID,0,VALID,90.1363,VALID,0,VALID,23.0769,VALID,106,VALID,0.287109,
2011-03-17, 03:10:04,VALID,998.363,VALID,0,VALID,90.1668,VALID,0,VALID,23.0981,VALID,106,VALID,0.11875,
2011-03-17, 03:11:04,VALID,998.325,VALID,0,VALID,90.1592,VALID,0,VALID,23.0786,VALID,106,VALID,0.0847656,
2011-03-17, 03:12:04,VALID,998.325,VALID,0,VALID,90.1363,VALID,0,VALID,23.0378,VALID,106,VALID,0.0273438,
2011-03-17, 03:13:04,VALID,998.297,VALID,0,VALID,90.1516,VALID,0,VALID,23.0378,VALID,106,VALID,0,
2011-03-17, 03:14:04,VALID,998.269,VALID,0,VALID,90.1821,VALID,0,VALID,23.0396,VALID,106,VALID,0,
2011-03-17, 03:15:04,VALID,998.292,VALID,0,VALID,90.1668,VALID,0,VALID,23.0183,VALID,106,VALID,0.0167969,
2011-03-17, 03:16:04,VALID,998.286,VALID,0,VALID,90.0753,VALID,0,VALID,23.0183,VALID,109,VALID,0.494141,
2011-03-17, 03:17:04,VALID,998.255,VALID,0,VALID,89.9761,VALID,0,VALID,22.9988,VALID,109,VALID,0.74375,
2011-03-17, 03:18:04,VALID,998.24,VALID,0,VALID,89.8464,VALID,0,VALID,23.0201,VALID,108,VALID,0.566016,
2011-03-17, 03:19:04,VALID,998.262,VALID,0,VALID,89.7625,VALID,0,VALID,22.9988,VALID,108,VALID,0.585547,
2011-03-17, 03:20:04,VALID,998.197,VALID,0,VALID,89.6709,VALID,0,VALID,23.0183,VALID,108,VALID,0.316406,
2011-03-17, 03:21:04,VALID,998.202,VALID,0,VALID,89.6175,VALID,0,VALID,23.0183,VALID,108,VALID,0.235547,
2011-03-17, 03:22:04,VALID,998.225,VALID,0,VALID,89.5946,VALID,0,VALID,23.0396,VALID,108,VALID,0.0480469,
2011-03-17, 03:23:04,VALID,998.216,VALID,0,VALID,89.6023,VALID,0,VALID,23.0183,VALID,108,VALID,0.0953125,
2011-03-17, 03:24:04,VALID,998.187,VALID,0,VALID,89.6099,VALID,0,VALID,23.0378,VALID,108,VALID,0.225,
2011-03-17, 03:25:04,VALID,998.196,VALID,0,VALID,89.5794,VALID,0,VALID,23.0378,VALID,108,VALID,0.470703,
2011-03-17, 03:26:04,VALID,998.214,VALID,0,VALID,89.4573,VALID,0,VALID,23.0573,VALID,115,VALID,0.596094,
2011-03-17, 03:27:04,VALID,998.203,VALID,0,VALID,89.3123,VALID,0,VALID,23.0591,VALID,115,VALID,0.589453,
2011-03-17, 03:28:04,VALID,998.231,VALID,0,VALID,89.1445,VALID,0,VALID,23.0981,VALID,115,VALID,0.548047,
2011-03-17, 03:29:04,VALID,998.251,VALID,0,VALID,88.9766,VALID,0,VALID,23.0964,VALID,145,VALID,0.742578,
2011-03-17, 03:30:04,VALID,998.245,VALID,0,VALID,88.8698,VALID,0,VALID,23.1159,VALID,145,VALID,0.690234,
2011-03-17, 03:31:04,VALID,998.279,VALID,0,VALID,88.7554,VALID,0,VALID,23.1371,VALID,145,VALID,0.741016,
2011-03-17, 03:32:04,VALID,998.276,VALID,0,VALID,88.5799,VALID,0,VALID,23.1176,VALID,153,VALID,1.11445,
2011-03-17, 03:33:04,VALID,998.305,VALID,0,VALID,88.2976,VALID,0,VALID,23.1176,VALID,154,VALID,0.822266,
2011-03-17, 03:34:04,VALID,998.308,VALID,0,VALID,88.0611,VALID,0,VALID,23.1176,VALID,148,VALID,1.25898,
2011-03-17, 03:35:04,VALID,998.316,VALID,0,VALID,87.8551,VALID,0,VALID,23.1176,VALID,138,VALID,1.07617,
2011-03-17, 03:36:04,VALID,998.305,VALID,0,VALID,87.8093,VALID,0,VALID,23.1159,VALID,138,VALID,0.842969,
2011-03-17, 03:37:04,VALID,998.29,VALID,0,VALID,87.8551,VALID,0,VALID,23.0964,VALID,138,VALID,0.987109,
2011-03-17, 03:38:04,VALID,998.307,VALID,0,VALID,87.9009,VALID,0,VALID,23.0964,VALID,138,VALID,0.822656,
2011-03-17, 03:39:04,VALID,998.309,VALID,0,VALID,87.9237,VALID,0,VALID,23.0769,VALID,136,VALID,0.919141,
2011-03-17, 03:40:04,VALID,998.294,VALID,0,VALID,87.9924,VALID,0,VALID,23.1176,VALID,133,VALID,0.814844,
2011-03-17, 03:41:04,VALID,998.325,VALID,0,VALID,87.9924,VALID,0,VALID,23.0769,VALID,131,VALID,0.735937,
2011-03-17, 03:42:04,VALID,998.328,VALID,0,VALID,88.0077,VALID,0,VALID,23.0786,VALID,128,VALID,0.957422,
2011-03-17, 03:43:04,VALID,998.34,VALID,0,VALID,88.0382,VALID,0,VALID,23.0786,VALID,118,VALID,0.753125,
2011-03-17, 03:44:04,VALID,998.333,VALID,0,VALID,88.1908,VALID,0,VALID,23.0786,VALID,116,VALID,0.714453,
2011-03-17, 03:45:04,VALID,998.362,VALID,0,VALID,88.3357,VALID,0,VALID,23.0573,VALID,111,VALID,0.617578,
2011-03-17, 03:46:04,VALID,998.397,VALID,0,VALID,88.4197,VALID,0,VALID,23.0378,VALID,107,VALID,0.9375,